TimeEST,TemperatureF,Dew PointF,Humidity,Sea Level PressureIn,VisibilityMPH,Wind Direction,Wind SpeedMPH,Gust SpeedMPH,PrecipitationIn,Events,Conditions,WindDirDegrees,DateUTC
12:56 AM,44.6,35.6,71,30.20,10.0,South,6.9,-,N/A,,Overcast,190,2012-12-02 05:56:00
1:56 AM,45.0,35.1,68,30.20,10.0,South,9.2,-,N/A,,Overcast,170,2012-12-02 06:56:00
2:56 AM,46.0,36.0,68,30.19,10.0,South,10.4,21.9,N/A,,Overcast,180,2012-12-02 07:56:00
3:56 AM,46.0,36.0,68,30.15,10.0,SSE,12.7,23.0,N/A,,Mostly Cloudy,160,2012-12-02 08:56:00
4:56 AM,46.9,36.0,66,30.13,10.0,South,12.7,20.7,N/A,,Scattered Clouds,170,2012-12-02 09:56:00
5:56 AM,48.0,37.0,66,30.11,10.0,South,12.7,21.9,N/A,,Overcast,170,2012-12-02 10:56:00
6:56 AM,48.2,37.4,66,30.08,10.0,South,11.5,21.9,N/A,,Overcast,170,2012-12-02 11:56:00
7:56 AM,46.9,37.0,68,30.06,10.0,SSE,16.1,28.8,N/A,,Clear,160,2012-12-02 12:56:00
8:56 AM,48.9,37.9,66,30.06,10.0,South,12.7,27.6,N/A,,Overcast,180,2012-12-02 13:56:00
9:56 AM,52.0,39.0,61,30.03,10.0,South,12.7,23.0,N/A,,Mostly Cloudy,180,2012-12-02 14:56:00
10:56 AM,50.0,39.9,68,30.01,10.0,South,12.7,24.2,0.00,Rain,Light Rain,180,2012-12-02 15:56:00
11:13 AM,48.2,42.8,82,29.99,6.0,South,10.4,19.6,0.00,Rain,Light Rain,180,2012-12-02 16:13:00
11:56 AM,48.0,44.1,86,29.96,4.0,South,11.5,21.9,0.04,Rain,Light Rain,180,2012-12-02 16:56:00
12:56 PM,48.2,44.6,87,29.93,5.0,SSW,15.0,25.3,N/A,Rain,Light Rain,200,2012-12-02 17:56:00
1:56 PM,48.9,45.0,86,29.90,3.0,South,13.8,23.0,0.07,Rain,Rain,180,2012-12-02 18:56:00
2:56 PM,48.9,45.0,86,29.89,4.0,South,12.7,23.0,0.08,Rain,Light Rain,170,2012-12-02 19:56:00
3:42 PM,48.2,46.4,93,29.88,-9999.0,North,-9999.0,-,0.06,,Unknown,0,2012-12-02 20:42:00
3:56 PM,-9999,-9999,N/A,29.88,-9999.0,North,-9999.0,-,0.06,,Unknown,0,2012-12-02 20:56:00
4:56 PM,-9999,-9999,N/A,29.89,-9999.0,North,-9999.0,-,N/A,,Unknown,0,2012-12-02 21:56:00
5:56 PM,-9999,-9999,N/A,29.89,-9999.0,North,-9999.0,-,N/A,,Unknown,0,2012-12-02 22:56:00
6:56 PM,-9999,-9999,N/A,29.92,-9999.0,North,-9999.0,-,N/A,,Unknown,0,2012-12-02 23:56:00
7:56 PM,-9999,-9999,N/A,29.94,-9999.0,North,-9999.0,-,N/A,,Unknown,0,2012-12-03 00:56:00
8:56 PM,-9999,-9999,N/A,29.95,-9999.0,North,-9999.0,-,N/A,,Unknown,0,2012-12-03 01:56:00
9:56 PM,-9999,-9999,N/A,29.97,-9999.0,North,-9999.0,-,N/A,,Unknown,0,2012-12-03 02:56:00
10:56 PM,-9999,-9999,N/A,29.99,-9999.0,North,-9999.0,-,N/A,,Unknown,0,2012-12-03 03:56:00
11:56 PM,-9999,-9999,N/A,30.03,-9999.0,North,-9999.0,-,N/A,,Unknown,0,2012-12-03 04:56:00